Time,TemperatureF,DewpointF,PressureIn,WindDirection,WindDirectionDegrees,WindSpeedMPH,WindSpeedGustMPH,Humidity,HourlyPrecipIn,Conditions,Clouds,dailyrainin,SoftwareType,DateUTC
2014-01-19 00:00:00,14.3,11.4,29.87,SE,125,0.0,0.0,88,0.00,,,0.00,WeatherDisplay:10.37,2014-01-19 05:00:00,
2014-01-19 00:01:00,14.3,11.4,29.87,SE,125,0.0,0.0,88,0.00,,,0.00,WeatherDisplay:10.37,2014-01-19 05:01:00,
2014-01-19 00:02:00,14.2,11.3,29.87,SE,125,0.0,0.0,88,0.00,,,0.00,WeatherDisplay:10.37,2014-01-19 05:02:00,
2014-01-19 00:03:00,14.2,11.3,29.87,SE,125,0.0,0.0,88,0.00,CLR,,0.00,WeatherDisplay:10.37,2014-01-19 05:03:00,
2014-01-19 00:05:00,14.1,11.2,29.87,SE,126,0.0,0.0,88,0.00,,,0.00,WeatherDisplay:10.37,2014-01-19 05:05:00,
2014-01-19 00:10:00,13.9,11.0,29.87,SE,125,0.0,0.0,88,0.00,,,0.00,WeatherDisplay:10.37,2014-01-19 05:10:00,
2014-01-19 00:15:00,13.8,11.2,29.87,SE,125,0.0,0.0,89,0.00,,,0.00,WeatherDisplay:10.37,2014-01-19 05:15:00,
2014-01-19 00:21:00,13.7,11.1,29.87,SE,126,0.0,0.0,89,0.00,,,0.00,WeatherDisplay:10.37,2014-01-19 05:21:00,
2014-01-19 00:26:00,13.7,11.1,29.87,SE,127,0.0,0.0,89,0.00,,,0.00,WeatherDisplay:10.37,2014-01-19 05:26:00,
2014-01-19 00:31:00,13.6,11.0,29.87,SE,127,0.0,0.0,89,0.00,,,0.00,WeatherDisplay:10.37,2014-01-19 05:31:00,
2014-01-19 00:36:00,13.5,10.9,29.87,SE,127,0.0,0.0,89,0.00,,,0.00,WeatherDisplay:10.37,2014-01-19 05:36:00,
2014-01-19 00:41:00,13.5,11.1,29.87,SE,127,1.0,0.0,90,0.00,,,0.00,WeatherDisplay:10.37,2014-01-19 05:41:00,
2014-01-19 00:46:00,13.8,11.4,29.87,SE,127,0.0,0.0,90,0.00,,,0.00,WeatherDisplay:10.37,2014-01-19 05:46:00,
2014-01-19 00:51:00,14.0,11.6,29.86,SE,127,0.0,0.0,90,0.00,,,0.00,WeatherDisplay:10.37,2014-01-19 05:51:00,
2014-01-19 00:56:00,14.3,11.9,29.86,SE,127,0.0,0.0,90,0.00,,,0.00,WeatherDisplay:10.37,2014-01-19 05:56:00,
2014-01-19 01:01:00,14.5,12.1,29.86,SE,129,1.1,1.1,90,0.00,,,0.00,WeatherDisplay:10.37,2014-01-19 06:01:00,
2014-01-19 01:06:00,14.7,12.0,29.86,SE,129,0.0,0.0,89,0.00,,,0.00,WeatherDisplay:10.37,2014-01-19 06:06:00,
2014-01-19 01:11:00,14.9,12.2,29.86,SE,145,0.0,0.0,89,0.00,,,0.00,WeatherDisplay:10.37,2014-01-19 06:11:00,
2014-01-19 01:16:00,15.3,12.6,29.86,SSW,194,0.0,0.0,89,0.00,,,0.00,WeatherDisplay:10.37,2014-01-19 06:16:00,
2014-01-19 01:21:00,15.6,12.9,29.86,SSW,193,0.0,0.0,89,0.00,,,0.00,WeatherDisplay:10.37,2014-01-19 06:21:00,
2014-01-19 01:26:00,15.8,13.1,29.86,SSE,163,0.0,0.0,89,0.00,,,0.00,WeatherDisplay:10.37,2014-01-19 06:26:00,
2014-01-19 01:31:00,16.1,13.2,29.86,SSE,159,1.1,0.0,88,0.00,,,0.00,WeatherDisplay:10.37,2014-01-19 06:31:00,
2014-01-19 01:36:00,16.3,13.4,29.85,ESE,118,0.0,0.0,88,0.00,,,0.00,WeatherDisplay:10.37,2014-01-19 06:36:00,
2014-01-19 01:41:00,16.6,13.7,29.85,ESE,120,0.0,0.0,88,0.00,,,0.00,WeatherDisplay:10.37,2014-01-19 06:41:00,
2014-01-19 01:46:00,16.7,13.5,29.85,SSW,209,1.1,0.0,87,0.00,,,0.00,WeatherDisplay:10.37,2014-01-19 06:46:00,
2014-01-19 01:51:00,17.0,13.5,29.85,SSE,165,1.1,0.0,86,0.00,,,0.00,WeatherDisplay:10.37,2014-01-19 06:51:00,
2014-01-19 01:56:00,17.2,13.7,29.84,SSE,165,0.0,0.0,86,0.00,,,0.00,WeatherDisplay:10.37,2014-01-19 06:56:00,
2014-01-19 02:01:00,17.4,13.9,29.85,ESE,114,0.0,0.2,86,0.00,,,0.00,WeatherDisplay:10.37,2014-01-19 07:01:00,
2014-01-19 02:06:00,17.5,13.8,29.85,SW,218,0.0,0.0,85,0.00,,,0.00,WeatherDisplay:10.37,2014-01-19 07:06:00,
2014-01-19 02:11:00,17.7,13.7,29.85,SW,214,0.0,0.0,84,0.00,,,0.00,WeatherDisplay:10.37,2014-01-19 07:11:00,
2014-01-19 02:16:00,17.8,13.5,29.84,SW,215,0.0,0.0,83,0.00,,,0.00,WeatherDisplay:10.37,2014-01-19 07:16:00,
2014-01-19 02:21:00,18.0,13.4,29.85,SW,233,1.1,0.0,82,0.00,,,0.00,WeatherDisplay:10.37,2014-01-19 07:21:00,
2014-01-19 02:26:00,18.1,13.5,29.85,SW,222,1.1,1.1,82,0.00,,,0.00,WeatherDisplay:10.37,2014-01-19 07:26:00,
2014-01-19 02:31:00,18.2,13.3,29.85,South,176,0.0,0.0,81,0.00,,,0.00,WeatherDisplay:10.37,2014-01-19 07:31:00,
2014-01-19 02:36:00,18.3,13.4,29.84,SSE,150,0.0,0.0,81,0.00,,,0.00,WeatherDisplay:10.37,2014-01-19 07:36:00,
2014-01-19 02:41:00,18.4,13.5,29.84,WSW,249,1.0,0.0,81,0.00,,,0.00,WeatherDisplay:10.37,2014-01-19 07:41:00,
2014-01-19 02:46:00,18.5,13.4,29.84,SW,229,1.1,1.1,80,0.00,,,0.00,WeatherDisplay:10.37,2014-01-19 07:46:00,
2014-01-19 02:51:00,18.5,13.1,29.84,WSW,239,0.0,0.0,79,0.00,,,0.00,WeatherDisplay:10.37,2014-01-19 07:51:00,
2014-01-19 02:56:00,18.5,13.4,29.84,SW,226,0.0,0.0,80,0.00,,,0.00,WeatherDisplay:10.37,2014-01-19 07:56:00,
2014-01-19 03:01:00,18.5,13.1,29.84,WSW,249,1.1,1.1,79,0.00,,,0.00,WeatherDisplay:10.37,2014-01-19 08:01:00,
2014-01-19 03:06:00,18.5,12.8,29.83,East,84,3.5,3.5,78,0.00,,,0.00,WeatherDisplay:10.37,2014-01-19 08:06:00,
2014-01-19 03:11:00,18.5,12.5,29.83,SW,233,3.5,3.5,77,0.00,,,0.00,WeatherDisplay:10.37,2014-01-19 08:11:00,
2014-01-19 03:16:00,18.5,12.8,29.83,SW,233,0.0,0.0,78,0.00,,,0.00,WeatherDisplay:10.37,2014-01-19 08:16:00,
2014-01-19 03:21:00,18.5,12.8,29.83,SW,226,1.1,1.1,78,0.00,,,0.00,WeatherDisplay:10.37,2014-01-19 08:21:00,
2014-01-19 03:26:00,18.4,12.4,29.83,SE,142,0.0,0.0,77,0.00,,,0.00,WeatherDisplay:10.37,2014-01-19 08:26:00,
2014-01-19 03:31:00,18.4,12.7,29.83,SSE,153,2.3,2.3,78,0.00,,,0.00,WeatherDisplay:10.37,2014-01-19 08:31:00,
2014-01-19 03:36:00,18.3,12.3,29.83,SW,222,0.0,0.0,77,0.00,,,0.00,WeatherDisplay:10.37,2014-01-19 08:36:00,
2014-01-19 03:41:00,18.3,12.3,29.83,SSE,152,0.0,0.0,77,0.00,,,0.00,WeatherDisplay:10.37,2014-01-19 08:41:00,
2014-01-19 03:46:00,18.3,12.3,29.83,SW,219,0.0,0.0,77,0.00,,,0.00,WeatherDisplay:10.37,2014-01-19 08:46:00,
2014-01-19 03:51:00,18.3,12.6,29.82,WSW,240,2.3,2.3,78,0.00,,,0.00,WeatherDisplay:10.37,2014-01-19 08:51:00,
2014-01-19 03:56:00,18.3,12.6,29.82,SSE,160,0.0,0.0,78,0.00,,,0.00,WeatherDisplay:10.37,2014-01-19 08:56:00,
2014-01-19 04:01:00,18.2,12.5,29.81,SSW,210,1.1,1.1,78,0.00,,,0.00,WeatherDisplay:10.37,2014-01-19 09:01:00,
2014-01-19 04:06:00,18.2,12.8,29.81,SE,139,0.0,0.0,79,0.00,,,0.00,WeatherDisplay:10.37,2014-01-19 09:06:00,
2014-01-19 04:11:00,18.2,12.8,29.80,SSE,159,1.1,1.1,79,0.00,,,0.00,WeatherDisplay:10.37,2014-01-19 09:11:00,
2014-01-19 04:16:00,18.2,12.5,29.80,SSW,201,0.0,0.0,78,0.00,,,0.00,WeatherDisplay:10.37,2014-01-19 09:16:00,
2014-01-19 04:21:00,18.2,12.5,29.80,SSW,203,0.0,0.0,78,0.00,,,0.00,WeatherDisplay:10.37,2014-01-19 09:21:00,
2014-01-19 04:26:00,18.2,12.5,29.80,SW,215,0.0,0.0,78,0.00,,,0.00,WeatherDisplay:10.37,2014-01-19 09:26:00,
2014-01-19 04:31:00,18.2,12.8,29.80,South,183,0.0,0.0,79,0.00,,,0.00,WeatherDisplay:10.37,2014-01-19 09:31:00,
2014-01-19 04:36:00,18.1,12.7,29.79,South,191,0.0,0.0,79,0.00,,,0.00,WeatherDisplay:10.37,2014-01-19 09:36:00,
2014-01-19 04:41:00,18.1,13.0,29.79,SW,222,1.1,1.1,80,0.00,,,0.00,WeatherDisplay:10.37,2014-01-19 09:41:00,
2014-01-19 04:46:00,17.9,13.1,29.79,SSW,204,2.3,2.3,81,0.00,,,0.00,WeatherDisplay:10.37,2014-01-19 09:46:00,
2014-01-19 04:51:00,17.8,13.5,29.79,SW,222,1.1,0.0,83,0.00,,,0.00,WeatherDisplay:10.37,2014-01-19 09:51:00,
2014-01-19 04:56:00,17.7,13.7,29.79,South,174,1.1,1.1,84,0.00,,,0.00,WeatherDisplay:10.37,2014-01-19 09:56:00,
2014-01-19 05:01:00,17.5,13.8,29.78,SE,144,0.0,0.0,85,0.00,,,0.00,WeatherDisplay:10.37,2014-01-19 10:01:00,
2014-01-19 05:06:00,17.5,14.0,29.78,SSW,207,0.0,0.0,86,0.00,,,0.00,WeatherDisplay:10.37,2014-01-19 10:06:00,
2014-01-19 05:11:00,17.4,13.9,29.78,SSW,204,0.0,0.0,86,0.00,,,0.00,WeatherDisplay:10.37,2014-01-19 10:11:00,
2014-01-19 05:16:00,17.3,13.8,29.78,SE,146,0.0,0.0,86,0.00,,,0.00,WeatherDisplay:10.37,2014-01-19 10:16:00,
2014-01-19 05:21:00,17.2,14.0,29.78,SE,138,1.1,1.1,87,0.00,,,0.00,WeatherDisplay:10.37,2014-01-19 10:21:00,
2014-01-19 05:26:00,17.1,13.9,29.77,SW,217,1.1,1.1,87,0.00,,,0.00,WeatherDisplay:10.37,2014-01-19 10:26:00,
2014-01-19 05:31:00,17.1,13.9,29.77,SSW,207,1.0,0.0,87,0.00,,,0.00,WeatherDisplay:10.37,2014-01-19 10:31:00,
2014-01-19 05:36:00,17.1,13.9,29.77,SW,215,1.1,0.0,87,0.00,,,0.00,WeatherDisplay:10.37,2014-01-19 10:36:00,
2014-01-19 05:41:00,17.1,13.9,29.77,SSW,195,1.1,1.1,87,0.00,,,0.00,WeatherDisplay:10.37,2014-01-19 10:41:00,
2014-01-19 05:46:00,17.1,13.9,29.77,South,179,1.1,1.1,87,0.00,,,0.00,WeatherDisplay:10.37,2014-01-19 10:46:00,
2014-01-19 05:51:00,17.0,14.1,29.76,SSW,212,1.1,0.0,88,0.00,,,0.00,WeatherDisplay:10.37,2014-01-19 10:51:00,
2014-01-19 05:56:00,17.0,14.1,29.76,SE,146,0.0,0.0,88,0.00,,,0.00,WeatherDisplay:10.37,2014-01-19 10:56:00,
2014-01-19 06:01:00,16.9,14.0,29.76,SSW,195,0.0,0.0,88,0.00,,,0.00,WeatherDisplay:10.37,2014-01-19 11:01:00,
2014-01-19 06:06:00,16.9,14.0,29.76,SE,132,1.1,1.1,88,0.00,,,0.00,WeatherDisplay:10.37,2014-01-19 11:06:00,
2014-01-19 06:11:00,16.8,13.9,29.75,SSE,167,1.1,0.0,88,0.00,,,0.00,WeatherDisplay:10.37,2014-01-19 11:11:00,
2014-01-19 06:16:00,16.8,13.9,29.75,SSE,149,0.0,0.0,88,0.00,,,0.00,WeatherDisplay:10.37,2014-01-19 11:16:00,
2014-01-19 06:21:00,16.7,13.8,29.75,SSW,212,0.0,0.0,88,0.00,,,0.00,WeatherDisplay:10.37,2014-01-19 11:21:00,
2014-01-19 06:26:00,16.6,13.7,29.75,SW,221,1.0,1.0,88,0.00,,,0.00,WeatherDisplay:10.37,2014-01-19 11:26:00,
2014-01-19 06:31:00,16.6,13.9,29.75,SSW,203,2.0,2.0,89,0.00,,,0.00,WeatherDisplay:10.37,2014-01-19 11:31:00,
2014-01-19 06:36:00,16.6,13.9,29.75,South,176,0.0,0.0,89,0.00,,,0.00,WeatherDisplay:10.37,2014-01-19 11:36:00,
2014-01-19 06:41:00,16.6,13.9,29.75,SSE,163,1.1,1.1,89,0.00,,,0.00,WeatherDisplay:10.37,2014-01-19 11:41:00,
2014-01-19 06:46:00,16.7,14.0,29.75,SSW,197,1.1,0.0,89,0.00,,,0.00,WeatherDisplay:10.37,2014-01-19 11:46:00,
2014-01-19 06:51:00,16.7,14.0,29.75,SE,143,0.0,0.1,89,0.00,,,0.00,WeatherDisplay:10.37,2014-01-19 11:51:00,
2014-01-19 06:56:00,16.7,14.0,29.75,SSE,161,1.1,1.1,89,0.00,,,0.00,WeatherDisplay:10.37,2014-01-19 11:56:00,
2014-01-19 07:01:00,16.7,14.0,29.75,SW,214,1.1,1.1,89,0.00,,,0.00,WeatherDisplay:10.37,2014-01-19 12:01:00,
2014-01-19 07:06:00,16.6,13.9,29.74,SSE,159,0.0,0.0,89,0.00,,,0.00,WeatherDisplay:10.37,2014-01-19 12:06:00,
2014-01-19 07:11:00,16.6,13.9,29.74,SE,125,1.1,1.1,89,0.00,,,0.00,WeatherDisplay:10.37,2014-01-19 12:11:00,
2014-01-19 07:16:00,16.5,13.8,29.74,South,189,1.1,1.1,89,0.00,,,0.00,WeatherDisplay:10.37,2014-01-19 12:16:00,
2014-01-19 07:21:00,16.4,13.7,29.73,South,191,0.0,0.0,89,0.00,,,0.00,WeatherDisplay:10.37,2014-01-19 12:21:00,
2014-01-19 07:26:00,16.3,13.6,29.73,SSW,194,0.0,0.0,89,0.00,,,0.00,WeatherDisplay:10.37,2014-01-19 12:26:00,
2014-01-19 07:31:00,16.2,13.5,29.73,SSW,205,1.1,1.1,89,0.00,,,0.00,WeatherDisplay:10.37,2014-01-19 12:31:00,
2014-01-19 07:36:00,16.1,13.4,29.73,SSE,153,0.0,0.5,89,0.00,,,0.00,WeatherDisplay:10.37,2014-01-19 12:36:00,
2014-01-19 07:41:00,16.0,13.3,29.73,SSW,197,1.1,0.0,89,0.00,,,0.00,WeatherDisplay:10.37,2014-01-19 12:41:00,
2014-01-19 07:46:00,16.0,13.3,29.73,SE,141,0.0,0.1,89,0.00,,,0.00,WeatherDisplay:10.37,2014-01-19 12:46:00,
2014-01-19 07:51:00,16.1,13.7,29.73,SSE,163,1.1,1.1,90,0.00,,,0.00,WeatherDisplay:10.37,2014-01-19 12:51:00,
2014-01-19 07:56:00,16.3,13.9,29.73,SE,124,1.0,0.0,90,0.00,,,0.00,WeatherDisplay:10.37,2014-01-19 12:56:00,
2014-01-19 08:01:00,16.6,14.2,29.73,South,180,1.1,1.1,90,0.00,,,0.00,WeatherDisplay:10.37,2014-01-19 13:01:00,
2014-01-19 08:06:00,16.8,14.4,29.72,SE,136,3.5,3.5,90,0.00,,,0.00,WeatherDisplay:10.37,2014-01-19 13:06:00,
2014-01-19 08:11:00,16.9,14.2,29.72,SW,221,1.1,1.1,89,0.00,,,0.00,WeatherDisplay:10.37,2014-01-19 13:11:00,
2014-01-19 08:17:00,17.0,14.3,29.72,West,262,1.1,1.1,89,0.00,,,0.00,WeatherDisplay:10.37,2014-01-19 13:17:00,
2014-01-19 08:22:00,17.0,14.3,29.72,SW,217,2.3,2.3,89,0.00,,,0.00,WeatherDisplay:10.37,2014-01-19 13:22:00,
2014-01-19 08:27:00,17.1,14.2,29.72,SSW,204,3.5,0.0,88,0.00,,,0.00,WeatherDisplay:10.37,2014-01-19 13:27:00,
2014-01-19 08:32:00,17.2,14.3,29.72,SSW,195,1.1,1.1,88,0.00,,,0.00,WeatherDisplay:10.37,2014-01-19 13:32:00,
2014-01-19 08:37:00,17.3,14.4,29.71,SSE,167,1.1,1.1,88,0.00,,,0.00,WeatherDisplay:10.37,2014-01-19 13:37:00,
2014-01-19 08:42:00,17.5,14.6,29.71,SSE,156,2.3,2.3,88,0.00,,,0.00,WeatherDisplay:10.37,2014-01-19 13:42:00,
2014-01-19 08:47:00,17.7,14.5,29.71,SSW,203,1.1,0.0,87,0.00,,,0.00,WeatherDisplay:10.37,2014-01-19 13:47:00,
2014-01-19 08:52:00,18.0,14.8,29.70,SW,217,2.0,2.0,87,0.00,,,0.00,WeatherDisplay:10.37,2014-01-19 13:52:00,
2014-01-19 08:57:00,18.2,14.7,29.70,SE,142,1.1,1.1,86,0.00,,,0.00,WeatherDisplay:10.37,2014-01-19 13:57:00,
2014-01-19 09:02:00,18.3,14.8,29.70,South,179,1.1,1.1,86,0.00,,,0.00,WeatherDisplay:10.37,2014-01-19 14:02:00,
2014-01-19 09:07:00,18.6,14.8,29.70,SSE,165,1.1,0.0,85,0.00,,,0.00,WeatherDisplay:10.37,2014-01-19 14:07:00,
2014-01-19 09:12:00,18.8,15.0,29.70,South,184,0.0,0.6,85,0.00,,,0.00,WeatherDisplay:10.37,2014-01-19 14:12:00,
2014-01-19 09:17:00,18.8,14.5,29.70,South,190,1.1,1.1,83,0.00,,,0.00,WeatherDisplay:10.37,2014-01-19 14:17:00,
2014-01-19 09:22:00,18.7,14.4,29.70,SW,217,2.3,2.3,83,0.00,,,0.00,WeatherDisplay:10.37,2014-01-19 14:22:00,
2014-01-19 09:27:00,18.8,14.5,29.69,SSE,168,0.0,0.0,83,0.00,,,0.00,WeatherDisplay:10.37,2014-01-19 14:27:00,
2014-01-19 09:32:00,19.0,14.7,29.69,SW,228,3.0,3.0,83,0.00,,,0.00,WeatherDisplay:10.37,2014-01-19 14:32:00,
2014-01-19 09:37:00,19.1,14.5,29.69,SW,217,1.1,1.1,82,0.00,,,0.00,WeatherDisplay:10.37,2014-01-19 14:37:00,
2014-01-19 09:42:00,19.5,14.6,29.69,SW,217,3.5,3.5,81,0.00,,,0.00,WeatherDisplay:10.37,2014-01-19 14:42:00,
2014-01-19 09:47:00,20.0,15.1,29.68,SE,134,1.1,1.1,81,0.00,,,0.00,WeatherDisplay:10.37,2014-01-19 14:47:00,
2014-01-19 09:52:00,20.4,14.9,29.68,SSW,193,3.5,3.5,79,0.00,,,0.00,WeatherDisplay:10.37,2014-01-19 14:52:00,
2014-01-19 09:57:00,20.7,15.2,29.68,SSW,207,1.1,1.1,79,0.00,,,0.00,WeatherDisplay:10.37,2014-01-19 14:57:00,
2014-01-19 10:02:00,20.8,14.7,29.68,SE,142,6.9,6.9,77,0.00,,,0.00,WeatherDisplay:10.37,2014-01-19 15:02:00,
2014-01-19 10:07:00,20.8,14.7,29.67,SSW,205,2.3,2.3,77,0.00,,,0.00,WeatherDisplay:10.37,2014-01-19 15:07:00,
2014-01-19 10:12:00,20.8,14.7,29.67,SSW,205,2.0,2.0,77,0.00,,,0.00,WeatherDisplay:10.37,2014-01-19 15:12:00,
2014-01-19 10:17:00,21.2,15.1,29.67,WSW,238,2.3,2.3,77,0.00,,,0.00,WeatherDisplay:10.37,2014-01-19 15:17:00,
2014-01-19 10:22:00,21.7,15.6,29.66,SW,228,2.3,2.3,77,0.00,,,0.00,WeatherDisplay:10.37,2014-01-19 15:22:00,
2014-01-19 10:27:00,21.9,15.8,29.66,SSE,160,1.0,1.0,77,0.00,,,0.00,WeatherDisplay:10.37,2014-01-19 15:27:00,
2014-01-19 10:32:00,22.4,15.7,29.65,SW,226,1.1,1.1,75,0.00,,,0.00,WeatherDisplay:10.37,2014-01-19 15:32:00,
2014-01-19 10:37:00,22.9,15.8,29.65,WSW,250,2.3,2.3,74,0.00,,,0.00,WeatherDisplay:10.37,2014-01-19 15:37:00,
2014-01-19 10:42:00,23.3,15.9,29.64,SSW,193,2.3,2.3,73,0.00,,,0.00,WeatherDisplay:10.37,2014-01-19 15:42:00,
2014-01-19 10:47:00,23.5,16.1,29.64,SSE,159,2.3,2.3,73,0.00,,,0.00,WeatherDisplay:10.37,2014-01-19 15:47:00,
2014-01-19 10:52:00,23.8,15.8,29.64,SW,231,3.5,3.5,71,0.00,,,0.00,WeatherDisplay:10.37,2014-01-19 15:52:00,
2014-01-19 10:57:00,23.6,15.9,29.64,East,79,1.1,0.0,72,0.00,,,0.00,WeatherDisplay:10.37,2014-01-19 15:57:00,
2014-01-19 11:13:00,24.4,16.0,29.63,SW,226,4.0,4.0,70,0.00,,,0.00,WeatherDisplay:10.37,2014-01-19 16:13:00,
2014-01-19 11:18:00,24.6,16.2,29.62,WSW,240,2.3,2.3,70,0.00,,,0.00,WeatherDisplay:10.37,2014-01-19 16:18:00,
2014-01-19 11:23:00,24.9,16.2,29.62,SW,226,2.3,2.3,69,0.00,,,0.00,WeatherDisplay:10.37,2014-01-19 16:23:00,
2014-01-19 11:28:00,25.0,16.3,29.61,SSW,200,3.5,3.5,69,0.00,,,0.00,WeatherDisplay:10.37,2014-01-19 16:28:00,
2014-01-19 11:33:00,25.6,16.8,29.61,WSW,241,3.5,3.5,69,0.00,,,0.00,WeatherDisplay:10.37,2014-01-19 16:33:00,
2014-01-19 11:39:00,26.0,17.2,29.61,WNW,297,6.9,6.9,69,0.00,,,0.00,WeatherDisplay:10.37,2014-01-19 16:39:00,
2014-01-19 11:44:00,26.1,17.0,29.61,West,280,3.5,3.5,68,0.00,,,0.00,WeatherDisplay:10.37,2014-01-19 16:44:00,
2014-01-19 11:49:00,26.3,17.2,29.60,SW,229,2.3,2.3,68,0.00,,,0.00,WeatherDisplay:10.37,2014-01-19 16:49:00,
2014-01-19 11:54:00,27.0,18.2,29.60,SSW,203,6.0,6.0,69,0.00,,,0.00,WeatherDisplay:10.37,2014-01-19 16:54:00,
2014-01-19 11:59:00,26.6,17.5,29.59,ESE,113,5.8,5.8,68,0.00,,,0.00,WeatherDisplay:10.37,2014-01-19 16:59:00,
2014-01-19 12:04:00,26.3,16.8,29.59,WSW,248,5.0,5.0,67,0.00,,,0.00,WeatherDisplay:10.37,2014-01-19 17:04:00,
2014-01-19 12:09:00,26.3,17.2,29.58,SSW,200,2.3,2.3,68,0.00,,,0.00,WeatherDisplay:10.37,2014-01-19 17:09:00,
2014-01-19 12:14:00,26.4,17.3,29.58,SSE,149,3.5,3.5,68,0.00,,,0.00,WeatherDisplay:10.37,2014-01-19 17:14:00,
2014-01-19 12:19:00,26.4,17.3,29.58,ENE,63,2.3,2.3,68,0.00,,,0.00,WeatherDisplay:10.37,2014-01-19 17:19:00,
2014-01-19 12:24:00,26.2,17.1,29.58,WSW,245,3.5,3.5,68,0.00,,,0.00,WeatherDisplay:10.37,2014-01-19 17:24:00,
2014-01-19 12:29:00,26.2,17.1,29.57,East,101,6.9,6.9,68,0.00,,,0.00,WeatherDisplay:10.37,2014-01-19 17:29:00,
2014-01-19 12:34:00,26.4,17.6,29.57,ESE,116,3.5,3.5,69,0.00,,,0.00,WeatherDisplay:10.37,2014-01-19 17:34:00,
2014-01-19 12:39:00,26.4,17.3,29.57,SW,217,3.5,3.5,68,0.00,,,0.00,WeatherDisplay:10.37,2014-01-19 17:39:00,
2014-01-19 12:44:00,26.6,17.1,29.56,SW,233,3.5,3.5,67,0.00,,,0.00,WeatherDisplay:10.37,2014-01-19 17:44:00,
2014-01-19 12:49:00,26.5,17.4,29.56,SW,225,3.5,3.5,68,0.00,,,0.00,WeatherDisplay:10.37,2014-01-19 17:49:00,
2014-01-19 12:54:00,26.6,17.8,29.55,NNE,25,3.5,3.5,69,0.00,,,0.00,WeatherDisplay:10.37,2014-01-19 17:54:00,
2014-01-19 12:59:00,26.7,17.6,29.55,SSW,200,3.5,3.5,68,0.00,,,0.00,WeatherDisplay:10.37,2014-01-19 17:59:00,
2014-01-19 13:04:00,26.9,18.1,29.55,SSW,197,2.3,2.3,69,0.00,,,0.00,WeatherDisplay:10.37,2014-01-19 18:04:00,
2014-01-19 13:09:00,26.9,17.4,29.55,WSW,252,2.3,2.3,67,0.00,,,0.00,WeatherDisplay:10.37,2014-01-19 18:09:00,
2014-01-19 13:14:00,27.0,18.2,29.54,SSW,205,3.5,3.5,69,0.00,,,0.00,WeatherDisplay:10.37,2014-01-19 18:14:00,
2014-01-19 13:19:00,27.2,18.0,29.54,WSW,258,0.0,0.0,68,0.00,,,0.00,WeatherDisplay:10.37,2014-01-19 18:19:00,
2014-01-19 13:24:00,27.5,18.0,29.54,WSW,241,2.3,2.3,67,0.00,,,0.00,WeatherDisplay:10.37,2014-01-19 18:24:00,
2014-01-19 13:29:00,27.6,18.4,29.54,WSW,248,3.5,3.5,68,0.00,,,0.00,WeatherDisplay:10.37,2014-01-19 18:29:00,
2014-01-19 13:34:00,27.9,18.4,29.53,WSW,243,1.1,1.1,67,0.00,,,0.00,WeatherDisplay:10.37,2014-01-19 18:34:00,
2014-01-19 13:39:00,28.0,18.1,29.53,West,260,4.6,4.6,66,0.00,,,0.00,WeatherDisplay:10.37,2014-01-19 18:39:00,
2014-01-19 13:44:00,28.3,18.7,29.52,SE,133,4.0,4.0,67,0.00,,,0.00,WeatherDisplay:10.37,2014-01-19 18:44:00,
2014-01-19 13:49:00,28.5,18.9,29.52,East,92,2.3,2.3,67,0.00,,,0.00,WeatherDisplay:10.37,2014-01-19 18:49:00,
2014-01-19 13:54:00,28.5,18.6,29.52,SSW,211,3.5,3.5,66,0.00,,,0.00,WeatherDisplay:10.37,2014-01-19 18:54:00,
2014-01-19 13:59:00,28.6,18.7,29.51,SW,217,4.0,4.0,66,0.00,,,0.00,WeatherDisplay:10.37,2014-01-19 18:59:00,
2014-01-19 14:04:00,28.6,19.0,29.52,WSW,253,3.5,3.5,67,0.00,,,0.00,WeatherDisplay:10.37,2014-01-19 19:04:00,
2014-01-19 14:09:00,28.9,19.3,29.51,WNW,299,3.5,3.5,67,0.00,,,0.00,WeatherDisplay:10.37,2014-01-19 19:09:00,
2014-01-19 14:14:00,29.0,19.4,29.51,WSW,239,2.3,2.3,67,0.00,,,0.00,WeatherDisplay:10.37,2014-01-19 19:14:00,
2014-01-19 14:19:00,29.1,19.5,29.51,WSW,252,11.5,11.5,67,0.00,,,0.00,WeatherDisplay:10.37,2014-01-19 19:19:00,
2014-01-19 14:24:00,29.1,19.5,29.50,SW,235,1.1,1.1,67,0.00,,,0.00,WeatherDisplay:10.37,2014-01-19 19:24:00,
2014-01-19 14:29:00,29.3,19.7,29.50,SE,132,4.0,4.0,67,0.00,,,0.00,WeatherDisplay:10.37,2014-01-19 19:29:00,
2014-01-19 14:34:00,29.4,19.8,29.50,SW,229,3.5,3.5,67,0.00,,,0.00,WeatherDisplay:10.37,2014-01-19 19:34:00,
2014-01-19 14:39:00,29.6,19.6,29.50,NE,51,3.5,3.5,66,0.00,,,0.00,WeatherDisplay:10.37,2014-01-19 19:39:00,
2014-01-19 14:44:00,29.7,19.7,29.50,WSW,257,2.3,2.3,66,0.00,,,0.00,WeatherDisplay:10.37,2014-01-19 19:44:00,
2014-01-19 14:49:00,29.7,19.7,29.49,WNW,301,3.5,3.5,66,0.00,,,0.00,WeatherDisplay:10.37,2014-01-19 19:49:00,
2014-01-19 14:54:00,29.8,19.8,29.49,South,179,3.5,3.5,66,0.00,,,0.00,WeatherDisplay:10.37,2014-01-19 19:54:00,
2014-01-19 14:59:00,29.9,19.6,29.50,WNW,283,7.0,7.0,65,0.00,,,0.00,WeatherDisplay:10.37,2014-01-19 19:59:00,
2014-01-19 15:04:00,29.9,19.9,29.50,NE,52,4.6,4.6,66,0.00,,,0.00,WeatherDisplay:10.37,2014-01-19 20:04:00,
2014-01-19 15:09:00,29.9,20.3,29.49,ESE,114,5.0,5.0,67,0.00,,,0.00,WeatherDisplay:10.37,2014-01-19 20:09:00,
2014-01-19 15:14:00,29.9,20.6,29.49,WSW,241,5.8,5.8,68,0.00,,,0.00,WeatherDisplay:10.37,2014-01-19 20:14:00,
2014-01-19 15:19:00,29.8,21.2,29.50,WSW,251,3.5,3.5,70,0.00,,,0.00,WeatherDisplay:10.37,2014-01-19 20:19:00,
2014-01-19 15:24:00,29.7,21.4,29.50,SW,234,2.3,2.3,71,0.00,,,0.00,WeatherDisplay:10.37,2014-01-19 20:24:00,
2014-01-19 15:29:00,29.6,21.7,29.50,SSW,195,6.0,6.0,72,0.00,,,0.00,WeatherDisplay:10.37,2014-01-19 20:29:00,
2014-01-19 15:34:00,29.5,21.6,29.50,WNW,287,3.5,3.5,72,0.00,,,0.00,WeatherDisplay:10.37,2014-01-19 20:34:00,
2014-01-19 15:39:00,29.5,21.9,29.50,WSW,248,5.8,5.8,73,0.00,,,0.00,WeatherDisplay:10.37,2014-01-19 20:39:00,
2014-01-19 15:44:00,29.6,22.0,29.50,WSW,249,4.6,4.6,73,0.00,,,0.00,WeatherDisplay:10.37,2014-01-19 20:44:00,
2014-01-19 15:49:00,29.7,22.1,29.51,ESE,117,5.0,5.0,73,0.00,,,0.00,WeatherDisplay:10.37,2014-01-19 20:49:00,
2014-01-19 15:54:00,29.7,22.4,29.51,SSE,160,2.3,2.3,74,0.00,,,0.00,WeatherDisplay:10.37,2014-01-19 20:54:00,
2014-01-19 15:59:00,29.7,22.7,29.51,West,262,3.5,3.5,75,0.00,,,0.00,WeatherDisplay:10.37,2014-01-19 20:59:00,
2014-01-19 16:05:00,29.6,22.6,29.51,SW,214,8.1,8.1,75,0.00,,,0.00,WeatherDisplay:10.37,2014-01-19 21:05:00,
2014-01-19 16:10:00,29.4,23.1,29.51,West,267,3.5,3.5,77,0.00,,,0.00,WeatherDisplay:10.37,2014-01-19 21:10:00,
2014-01-19 16:15:00,29.3,23.0,29.52,SSW,208,4.6,4.6,77,0.00,,,0.00,WeatherDisplay:10.37,2014-01-19 21:15:00,
2014-01-19 16:20:00,29.4,23.1,29.52,NNW,338,9.0,9.0,77,0.00,,,0.00,WeatherDisplay:10.37,2014-01-19 21:20:00,
2014-01-19 16:25:00,29.3,23.0,29.53,ESE,121,3.5,3.5,77,0.00,,,0.00,WeatherDisplay:10.37,2014-01-19 21:25:00,
2014-01-19 16:30:00,29.3,23.3,29.53,SW,219,3.5,3.5,78,0.00,,,0.00,WeatherDisplay:10.37,2014-01-19 21:30:00,
2014-01-19 16:35:00,29.3,23.3,29.53,WSW,246,4.6,4.6,78,0.00,,,0.00,WeatherDisplay:10.37,2014-01-19 21:35:00,
2014-01-19 16:40:00,29.3,23.3,29.53,WSW,252,4.0,4.0,78,0.00,,,0.00,WeatherDisplay:10.37,2014-01-19 21:40:00,
2014-01-19 16:45:00,29.3,23.3,29.53,SW,235,3.5,3.5,78,0.00,,,0.00,WeatherDisplay:10.37,2014-01-19 21:45:00,
2014-01-19 16:50:00,29.2,23.2,29.53,SW,217,8.1,8.1,78,0.00,,,0.00,WeatherDisplay:10.37,2014-01-19 21:50:00,
2014-01-19 16:55:00,29.2,23.2,29.53,West,260,2.3,2.3,78,0.00,,,0.00,WeatherDisplay:10.37,2014-01-19 21:55:00,
2014-01-19 17:00:00,29.2,23.2,29.53,WNW,285,2.3,2.3,78,0.00,,,0.00,WeatherDisplay:10.37,2014-01-19 22:00:00,
2014-01-19 17:05:00,29.3,23.3,29.54,WSW,257,1.1,1.1,78,0.00,,,0.00,WeatherDisplay:10.37,2014-01-19 22:05:00,
2014-01-19 17:10:00,29.3,23.3,29.54,SW,222,2.3,0.0,78,0.00,,,0.00,WeatherDisplay:10.37,2014-01-19 22:10:00,
2014-01-19 17:15:00,29.3,23.3,29.54,WSW,241,1.1,1.1,78,0.00,,,0.00,WeatherDisplay:10.37,2014-01-19 22:15:00,
2014-01-19 17:20:00,29.4,23.4,29.54,East,86,2.3,2.3,78,0.00,,,0.00,WeatherDisplay:10.37,2014-01-19 22:20:00,
2014-01-19 17:25:00,29.4,23.1,29.54,WNW,285,3.5,3.5,77,0.00,,,0.00,WeatherDisplay:10.37,2014-01-19 22:25:00,
2014-01-19 17:30:00,29.7,23.4,29.54,East,84,8.1,8.1,77,0.00,,,0.00,WeatherDisplay:10.37,2014-01-19 22:30:00,
2014-01-19 17:35:00,30.0,23.0,29.55,West,280,5.8,5.8,75,0.00,,,0.00,WeatherDisplay:10.37,2014-01-19 22:35:00,
2014-01-19 17:40:00,30.3,23.0,29.55,WNW,297,14.0,14.0,74,0.00,,,0.00,WeatherDisplay:10.37,2014-01-19 22:40:00,
2014-01-19 17:45:00,30.7,23.4,29.55,ENE,58,3.5,3.5,74,0.00,,,0.00,WeatherDisplay:10.37,2014-01-19 22:45:00,
2014-01-19 17:50:00,30.9,23.3,29.55,WSW,249,5.8,5.8,73,0.00,,,0.00,WeatherDisplay:10.37,2014-01-19 22:50:00,
2014-01-19 17:55:00,31.0,23.7,29.55,West,280,10.4,10.4,74,0.00,,,0.00,WeatherDisplay:10.37,2014-01-19 22:55:00,
2014-01-19 18:00:00,31.1,23.8,29.56,West,266,11.5,11.5,74,0.00,,,0.00,WeatherDisplay:10.37,2014-01-19 23:00:00,
2014-01-19 18:05:00,31.1,23.8,29.55,WNW,297,11.5,11.5,74,0.00,,,0.00,WeatherDisplay:10.37,2014-01-19 23:05:00,
2014-01-19 18:10:00,31.0,24.0,29.56,South,179,9.2,9.2,75,0.00,,,0.00,WeatherDisplay:10.37,2014-01-19 23:10:00,
2014-01-19 18:15:00,31.0,24.0,29.56,West,271,10.4,10.4,75,0.00,,,0.00,WeatherDisplay:10.37,2014-01-19 23:15:00,
2014-01-19 18:20:00,30.9,24.2,29.55,NNW,331,4.6,4.6,76,0.00,,,0.00,WeatherDisplay:10.37,2014-01-19 23:20:00,
2014-01-19 18:25:00,30.9,24.2,29.56,SW,225,4.6,4.6,76,0.00,,,0.00,WeatherDisplay:10.37,2014-01-19 23:25:00,
2014-01-19 18:30:00,30.9,23.9,29.56,SW,229,9.2,9.2,75,0.00,,,0.00,WeatherDisplay:10.37,2014-01-19 23:30:00,
2014-01-19 18:35:00,30.9,24.2,29.56,NNE,18,17.0,17.0,76,0.00,,,0.00,WeatherDisplay:10.37,2014-01-19 23:35:00,
2014-01-19 18:40:00,30.9,24.2,29.56,West,270,11.5,11.5,76,0.00,,,0.00,WeatherDisplay:10.37,2014-01-19 23:40:00,
2014-01-19 18:45:00,30.8,24.4,29.57,WSW,239,9.2,9.2,77,0.00,,,0.00,WeatherDisplay:10.37,2014-01-19 23:45:00,
2014-01-19 18:50:00,30.7,24.0,29.57,WNW,291,9.0,9.0,76,0.00,,,0.00,WeatherDisplay:10.37,2014-01-19 23:50:00,
2014-01-19 18:55:00,30.7,24.3,29.57,NW,309,6.0,6.0,77,0.00,,,0.00,WeatherDisplay:10.37,2014-01-19 23:55:00,
2014-01-19 19:00:00,30.7,24.3,29.57,NE,55,3.5,3.5,77,0.00,,,0.00,WeatherDisplay:10.37,2014-01-20 00:00:00,
2014-01-19 19:05:00,30.7,24.3,29.58,East,80,4.0,4.0,77,0.00,,,0.00,WeatherDisplay:10.37,2014-01-20 00:05:00,
2014-01-19 19:10:00,30.7,24.0,29.58,West,269,10.4,10.4,76,0.00,,,0.00,WeatherDisplay:10.37,2014-01-20 00:10:00,
2014-01-19 19:15:00,30.7,24.0,29.57,NE,50,6.0,6.0,76,0.00,,,0.00,WeatherDisplay:10.37,2014-01-20 00:15:00,
2014-01-19 19:20:00,30.6,24.2,29.58,West,265,3.5,3.5,77,0.00,,,0.00,WeatherDisplay:10.37,2014-01-20 00:20:00,
2014-01-19 19:25:00,30.6,23.9,29.58,NW,307,6.9,6.9,76,0.00,,,0.00,WeatherDisplay:10.37,2014-01-20 00:25:00,
2014-01-19 19:30:00,30.5,24.1,29.58,West,280,5.8,5.8,77,0.00,,,0.00,WeatherDisplay:10.37,2014-01-20 00:30:00,
2014-01-19 19:35:00,30.5,24.5,29.58,SSW,204,4.6,4.6,78,0.00,,,0.00,WeatherDisplay:10.37,2014-01-20 00:35:00,
2014-01-19 19:40:00,30.4,24.4,29.58,WSW,257,10.4,10.4,78,0.00,,,0.00,WeatherDisplay:10.37,2014-01-20 00:40:00,
2014-01-19 19:45:00,30.4,24.4,29.58,West,281,5.8,5.8,78,0.00,,,0.00,WeatherDisplay:10.37,2014-01-20 00:45:00,
2014-01-19 19:50:00,30.3,24.3,29.58,NW,316,6.9,6.9,78,0.00,,,0.00,WeatherDisplay:10.37,2014-01-20 00:50:00,
2014-01-19 19:55:00,30.3,24.3,29.58,SSW,210,10.4,10.4,78,0.00,,,0.00,WeatherDisplay:10.37,2014-01-20 00:55:00,
2014-01-19 20:01:00,30.2,24.2,29.58,West,266,11.5,11.5,78,0.00,,,0.00,WeatherDisplay:10.37,2014-01-20 01:01:00,
2014-01-19 20:06:00,30.1,24.1,29.58,North,4,12.7,12.7,78,0.00,,,0.00,WeatherDisplay:10.37,2014-01-20 01:06:00,
2014-01-19 20:11:00,30.1,24.1,29.57,NW,314,18.0,18.0,78,0.00,,,0.00,WeatherDisplay:10.37,2014-01-20 01:11:00,
2014-01-19 20:16:00,30.0,24.0,29.58,West,280,5.8,5.8,78,0.00,,,0.00,WeatherDisplay:10.37,2014-01-20 01:16:00,
2014-01-19 20:21:00,30.0,24.0,29.58,ESE,121,5.8,5.8,78,0.00,,,0.00,WeatherDisplay:10.37,2014-01-20 01:21:00,
2014-01-19 20:26:00,30.0,24.0,29.58,WSW,246,8.1,8.1,78,0.00,,,0.00,WeatherDisplay:10.37,2014-01-20 01:26:00,
2014-01-19 20:31:00,30.0,24.0,29.58,SW,228,6.9,6.9,78,0.00,,,0.00,WeatherDisplay:10.37,2014-01-20 01:31:00,
2014-01-19 20:36:00,30.0,24.0,29.58,ENE,77,1.0,1.0,78,0.00,,,0.00,WeatherDisplay:10.37,2014-01-20 01:36:00,
2014-01-19 20:41:00,30.0,24.0,29.58,WNW,297,8.1,8.1,78,0.00,,,0.00,WeatherDisplay:10.37,2014-01-20 01:41:00,
2014-01-19 20:46:00,30.0,24.0,29.58,WSW,239,6.9,6.9,78,0.00,,,0.00,WeatherDisplay:10.37,2014-01-20 01:46:00,
2014-01-19 20:51:00,29.9,24.2,29.58,West,267,4.6,4.6,79,0.00,,,0.00,WeatherDisplay:10.37,2014-01-20 01:51:00,
2014-01-19 20:56:00,29.9,24.2,29.58,SW,234,3.5,3.5,79,0.00,,,0.00,WeatherDisplay:10.37,2014-01-20 01:56:00,
2014-01-19 21:01:00,29.9,24.2,29.58,ENE,70,3.5,3.5,79,0.00,,,0.00,WeatherDisplay:10.37,2014-01-20 02:01:00,
2014-01-19 21:06:00,29.9,24.2,29.58,SW,236,4.6,4.6,79,0.00,,,0.00,WeatherDisplay:10.37,2014-01-20 02:06:00,
2014-01-19 21:11:00,29.9,24.2,29.58,East,79,3.5,3.5,79,0.00,,,0.00,WeatherDisplay:10.37,2014-01-20 02:11:00,
2014-01-19 21:16:00,29.9,24.2,29.58,WSW,243,1.1,1.1,79,0.00,,,0.00,WeatherDisplay:10.37,2014-01-20 02:16:00,
2014-01-19 21:21:00,29.8,24.1,29.58,WSW,252,4.6,4.6,79,0.00,,,0.00,WeatherDisplay:10.37,2014-01-20 02:21:00,
2014-01-19 21:26:00,29.8,24.1,29.58,West,278,8.1,8.1,79,0.00,,,0.00,WeatherDisplay:10.37,2014-01-20 02:26:00,
2014-01-19 21:31:00,29.9,24.2,29.58,SW,231,3.5,3.5,79,0.00,,,0.00,WeatherDisplay:10.37,2014-01-20 02:31:00,
2014-01-19 21:36:00,29.9,24.2,29.58,WNW,291,6.0,6.0,79,0.00,,,0.00,WeatherDisplay:10.37,2014-01-20 02:36:00,
2014-01-19 21:41:00,30.0,24.3,29.58,WSW,243,9.2,9.2,79,0.00,,,0.00,WeatherDisplay:10.37,2014-01-20 02:41:00,
2014-01-19 21:46:00,30.0,24.3,29.59,West,263,4.6,4.6,79,0.00,,,0.00,WeatherDisplay:10.37,2014-01-20 02:46:00,
2014-01-19 21:51:00,29.9,24.5,29.59,West,280,4.0,4.0,80,0.00,,,0.00,WeatherDisplay:10.37,2014-01-20 02:51:00,
2014-01-19 21:56:00,30.0,24.3,29.59,WNW,285,6.9,6.9,79,0.00,,,0.00,WeatherDisplay:10.37,2014-01-20 02:56:00,
2014-01-19 22:01:00,30.0,24.3,29.59,WNW,294,9.2,9.2,79,0.00,,,0.00,WeatherDisplay:10.37,2014-01-20 03:01:00,
2014-01-19 22:06:00,30.0,24.3,29.60,WNW,283,9.2,9.2,79,0.00,,,0.00,WeatherDisplay:10.37,2014-01-20 03:06:00,
2014-01-19 22:11:00,30.0,24.6,29.59,SW,225,4.0,4.0,80,0.00,,,0.00,WeatherDisplay:10.37,2014-01-20 03:11:00,
2014-01-19 22:16:00,29.9,24.5,29.59,West,273,8.1,8.1,80,0.00,,,0.00,WeatherDisplay:10.37,2014-01-20 03:16:00,
2014-01-19 22:21:00,29.8,24.7,29.58,South,173,2.3,2.3,81,0.00,,,0.00,WeatherDisplay:10.37,2014-01-20 03:21:00,
2014-01-19 22:26:00,29.7,24.9,29.58,WNW,297,3.5,3.5,82,0.00,,,0.00,WeatherDisplay:10.37,2014-01-20 03:26:00,
2014-01-19 22:31:00,29.7,24.9,29.59,WSW,253,4.6,4.6,82,0.00,,,0.00,WeatherDisplay:10.37,2014-01-20 03:31:00,
2014-01-19 22:36:00,29.7,24.9,29.59,NNW,331,2.0,2.0,82,0.00,,,0.00,WeatherDisplay:10.37,2014-01-20 03:36:00,
2014-01-19 22:41:00,29.8,24.7,29.59,NW,314,4.0,4.0,81,0.00,,,0.00,WeatherDisplay:10.37,2014-01-20 03:41:00,
2014-01-19 22:46:00,29.9,24.8,29.58,West,264,1.0,1.0,81,0.00,,,0.00,WeatherDisplay:10.37,2014-01-20 03:46:00,
2014-01-19 22:51:00,29.9,24.5,29.58,WSW,238,4.6,4.6,80,0.00,,,0.00,WeatherDisplay:10.37,2014-01-20 03:51:00,
2014-01-19 22:56:00,30.1,24.4,29.58,West,276,19.6,19.6,79,0.00,,,0.00,WeatherDisplay:10.37,2014-01-20 03:56:00,
2014-01-19 23:01:00,30.2,24.5,29.58,WNW,284,8.0,8.0,79,0.00,,,0.00,WeatherDisplay:10.37,2014-01-20 04:01:00,
2014-01-19 23:06:00,30.2,24.5,29.58,SW,219,6.9,6.9,79,0.00,,,0.00,WeatherDisplay:10.37,2014-01-20 04:06:00,
2014-01-19 23:11:00,30.3,24.3,29.58,West,273,10.4,10.4,78,0.00,,,0.00,WeatherDisplay:10.37,2014-01-20 04:11:00,
2014-01-19 23:16:00,30.5,24.5,29.58,SW,236,11.0,11.0,78,0.00,,,0.00,WeatherDisplay:10.37,2014-01-20 04:16:00,
2014-01-19 23:21:00,30.5,24.5,29.58,West,277,9.2,9.2,78,0.00,,,0.00,WeatherDisplay:10.37,2014-01-20 04:21:00,
2014-01-19 23:26:00,30.6,24.6,29.57,WSW,239,5.8,5.8,78,0.00,,,0.00,WeatherDisplay:10.37,2014-01-20 04:26:00,
2014-01-19 23:31:00,30.6,24.6,29.58,NNE,25,10.4,10.4,78,0.00,,,0.00,WeatherDisplay:10.37,2014-01-20 04:31:00,
2014-01-19 23:36:00,30.5,24.8,29.57,SE,132,19.6,19.6,79,0.00,,,0.00,WeatherDisplay:10.37,2014-01-20 04:36:00,
2014-01-19 23:41:00,30.6,24.2,29.58,West,273,16.1,16.1,77,0.00,,,0.00,WeatherDisplay:10.37,2014-01-20 04:41:00,
2014-01-19 23:46:00,30.6,24.6,29.58,NNW,331,5.8,5.8,78,0.00,,,0.00,WeatherDisplay:10.37,2014-01-20 04:46:00,
2014-01-19 23:51:00,30.6,24.6,29.57,WSW,248,10.4,10.4,78,0.00,,,0.00,WeatherDisplay:10.37,2014-01-20 04:51:00,
2014-01-19 23:56:00,30.5,24.5,29.57,NW,312,3.5,3.5,78,0.00,,,0.00,WeatherDisplay:10.37,2014-01-20 04:56:00,